owner,sensor,date,latitude,longitude,vertical_datum,sea_water_temperature,qcFlag 
SCCF RECON,ioos:station:SCCF:11:1,2016-07-01T00:00:00Z,26.4679,-82.0631,1.74,32.29,2 
SCCF RECON,ioos:station:SCCF:11:1,2016-07-01T01:00:00Z,26.4679,-82.0631,1.74,32.83,2 
SCCF RECON,ioos:station:SCCF:11:1,2016-07-01T02:00:00Z,26.4679,-82.0631,1.74,32.61,2 
SCCF RECON,ioos:station:SCCF:11:1,2016-07-01T03:00:00Z,26.4679,-82.0631,1.74,32.51,2 
SCCF RECON,ioos:station:SCCF:11:1,2016-07-01T04:00:00Z,26.4679,-82.0631,1.74,32.39,2 
SCCF RECON,ioos:station:SCCF:11:1,2016-07-01T05:00:00Z,26.4679,-82.0631,1.74,32.39,2 
SCCF RECON,ioos:station:SCCF:11:1,2016-07-01T06:00:00Z,26.4679,-82.0631,1.74,32.18,2 
SCCF RECON,ioos:station:SCCF:11:1,2016-07-01T07:00:00Z,26.4679,-82.0631,1.74,32.21,2 
SCCF RECON,ioos:station:SCCF:11:1,2016-07-01T08:00:00Z,26.4679,-82.0631,1.74,32.15,2 
SCCF RECON,ioos:station:SCCF:11:1,2016-07-01T09:00:00Z,26.4679,-82.0631,1.74,31.85,2 
SCCF RECON,ioos:station:SCCF:11:1,2016-07-01T10:00:00Z,26.4679,-82.0631,1.74,31.9,2 
SCCF RECON,ioos:station:SCCF:11:1,2016-07-01T11:00:00Z,26.4679,-82.0631,1.74,31.49,2 
SCCF RECON,ioos:station:SCCF:11:1,2016-07-01T12:00:00Z,26.4679,-82.0631,1.74,31.46,2 
SCCF RECON,ioos:station:SCCF:11:1,2016-07-01T13:00:00Z,26.4679,-82.0631,1.74,31.4,2 
SCCF RECON,ioos:station:SCCF:11:1,2016-07-01T14:00:00Z,26.4679,-82.0631,1.74,31.43,2 
SCCF RECON,ioos:station:SCCF:11:1,2016-07-01T15:00:00Z,26.4679,-82.0631,1.74,31.56,2 
SCCF RECON,ioos:station:SCCF:11:1,2016-07-01T16:00:00Z,26.4679,-82.0631,1.74,31.6,2 
SCCF RECON,ioos:station:SCCF:11:1,2016-07-01T17:00:00Z,26.4679,-82.0631,1.74,32.45,2 
SCCF RECON,ioos:station:SCCF:11:1,2016-07-01T18:00:00Z,26.4679,-82.0631,1.74,32.69,2 
SCCF RECON,ioos:station:SCCF:11:1,2016-07-01T19:00:00Z,26.4679,-82.0631,1.74,33.08,2 
SCCF RECON,ioos:station:SCCF:11:1,2016-07-01T20:00:00Z,26.4679,-82.0631,1.74,33.38,2 
SCCF RECON,ioos:station:SCCF:11:1,2016-07-01T21:00:00Z,26.4679,-82.0631,1.74,33.66,2 
SCCF RECON,ioos:station:SCCF:11:1,2016-07-01T22:00:00Z,26.4679,-82.0631,1.74,33.82,2 
SCCF RECON,ioos:station:SCCF:11:1,2016-07-01T23:00:00Z,26.4679,-82.0631,1.74,33.63,2 
SCCF RECON,ioos:station:SCCF:11:1,2016-07-02T00:00:00Z,26.4679,-82.0631,1.74,33.25,2 
SCCF RECON,ioos:station:SCCF:11:1,2016-07-02T01:00:00Z,26.4679,-82.0631,1.74,32.36,2 
SCCF RECON,ioos:station:SCCF:11:1,2016-07-02T02:00:00Z,26.4679,-82.0631,1.74,32.67,2 
SCCF RECON,ioos:station:SCCF:11:1,2016-07-02T03:00:00Z,26.4679,-82.0631,1.74,32.01,2 
SCCF RECON,ioos:station:SCCF:11:1,2016-07-02T04:00:00Z,26.4679,-82.0631,1.74,32.49,2 
SCCF RECON,ioos:station:SCCF:11:1,2016-07-02T05:00:00Z,26.4679,-82.0631,1.74,32.59,2 
SCCF RECON,ioos:station:SCCF:11:1,2016-07-02T06:00:00Z,26.4679,-82.0631,1.74,32.23,2 
SCCF RECON,ioos:station:SCCF:11:1,2016-07-02T07:00:00Z,26.4679,-82.0631,1.74,31.93,2 
SCCF RECON,ioos:station:SCCF:11:1,2016-07-02T08:00:00Z,26.4679,-82.0631,1.74,31.96,2 
SCCF RECON,ioos:station:SCCF:11:1,2016-07-02T09:00:00Z,26.4679,-82.0631,1.74,31.63,2 
SCCF RECON,ioos:station:SCCF:11:1,2016-07-02T10:00:00Z,26.4679,-82.0631,1.74,31.89,2 
SCCF RECON,ioos:station:SCCF:11:1,2016-07-02T11:00:00Z,26.4679,-82.0631,1.74,31.45,2 
SCCF RECON,ioos:station:SCCF:11:1,2016-07-02T12:00:00Z,26.4679,-82.0631,1.74,31.56,2 
SCCF RECON,ioos:station:SCCF:11:1,2016-07-02T13:00:00Z,26.4679,-82.0631,1.74,31.74,2 
SCCF RECON,ioos:station:SCCF:11:1,2016-07-02T14:00:00Z,26.4679,-82.0631,1.74,31.66,2 
SCCF RECON,ioos:station:SCCF:11:1,2016-07-02T15:00:00Z,26.4679,-82.0631,1.74,31.68,2 
SCCF RECON,ioos:station:SCCF:11:1,2016-07-02T16:00:00Z,26.4679,-82.0631,1.74,31.76,2 
SCCF RECON,ioos:station:SCCF:11:1,2016-07-02T17:00:00Z,26.4679,-82.0631,1.74,31.81,2 
SCCF RECON,ioos:station:SCCF:11:1,2016-07-02T18:00:00Z,26.4679,-82.0631,1.74,33.17,2 
SCCF RECON,ioos:station:SCCF:11:1,2016-07-02T19:00:00Z,26.4679,-82.0631,1.74,33.1,2 
SCCF RECON,ioos:station:SCCF:11:1,2016-07-02T20:00:00Z,26.4679,-82.0631,1.74,33.49,2 
SCCF RECON,ioos:station:SCCF:11:1,2016-07-02T21:00:00Z,26.4679,-82.0631,1.74,33.71,2 
SCCF RECON,ioos:station:SCCF:11:1,2016-07-02T22:00:00Z,26.4679,-82.0631,1.74,33.71,2 
SCCF RECON,ioos:station:SCCF:11:1,2016-07-02T23:00:00Z,26.4679,-82.0631,1.74,33.69,2 
SCCF RECON,ioos:station:SCCF:11:1,2016-07-03T00:00:00Z,26.4679,-82.0631,1.74,33.44,2 
SCCF RECON,ioos:station:SCCF:11:1,2016-07-03T01:00:00Z,26.4679,-82.0631,1.74,33.28,2 
SCCF RECON,ioos:station:SCCF:11:1,2016-07-03T02:00:00Z,26.4679,-82.0631,1.74,32.88,2 
SCCF RECON,ioos:station:SCCF:11:1,2016-07-03T03:00:00Z,26.4679,-82.0631,1.74,32.81,2 
SCCF RECON,ioos:station:SCCF:11:1,2016-07-03T04:00:00Z,26.4679,-82.0631,1.74,32.64,2 
SCCF RECON,ioos:station:SCCF:11:1,2016-07-03T05:00:00Z,26.4679,-82.0631,1.74,32.73,2 
SCCF RECON,ioos:station:SCCF:11:1,2016-07-03T06:00:00Z,26.4679,-82.0631,1.74,32.38,2 
SCCF RECON,ioos:station:SCCF:11:1,2016-07-03T07:00:00Z,26.4679,-82.0631,1.74,32.26,2 
SCCF RECON,ioos:station:SCCF:11:1,2016-07-03T08:00:00Z,26.4679,-82.0631,1.74,32.31,2 
SCCF RECON,ioos:station:SCCF:11:1,2016-07-03T09:00:00Z,26.4679,-82.0631,1.74,32.28,2 
SCCF RECON,ioos:station:SCCF:11:1,2016-07-03T10:00:00Z,26.4679,-82.0631,1.74,32.15,2 
SCCF RECON,ioos:station:SCCF:11:1,2016-07-03T11:00:00Z,26.4679,-82.0631,1.74,32.05,2 
SCCF RECON,ioos:station:SCCF:11:1,2016-07-03T12:00:00Z,26.4679,-82.0631,1.74,31.74,2 
SCCF RECON,ioos:station:SCCF:11:1,2016-07-03T13:00:00Z,26.4679,-82.0631,1.74,31.44,2 
SCCF RECON,ioos:station:SCCF:11:1,2016-07-03T14:00:00Z,26.4679,-82.0631,1.74,31.53,2 
SCCF RECON,ioos:station:SCCF:11:1,2016-07-03T15:00:00Z,26.4679,-82.0631,1.74,31.59,2 
SCCF RECON,ioos:station:SCCF:11:1,2016-07-03T16:00:00Z,26.4679,-82.0631,1.74,31.69,2 
SCCF RECON,ioos:station:SCCF:11:1,2016-07-03T17:00:00Z,26.4679,-82.0631,1.74,31.8,2 
SCCF RECON,ioos:station:SCCF:11:1,2016-07-03T18:00:00Z,26.4679,-82.0631,1.74,32.57,2 
SCCF RECON,ioos:station:SCCF:11:1,2016-07-03T19:00:00Z,26.4679,-82.0631,1.74,33.27,2 
SCCF RECON,ioos:station:SCCF:11:1,2016-07-03T20:00:00Z,26.4679,-82.0631,1.74,33.58,2 
SCCF RECON,ioos:station:SCCF:11:1,2016-07-03T21:00:00Z,26.4679,-82.0631,1.74,33.82,2 
SCCF RECON,ioos:station:SCCF:11:1,2016-07-03T22:00:00Z,26.4679,-82.0631,1.74,33.88,2 
SCCF RECON,ioos:station:SCCF:11:1,2016-07-03T23:00:00Z,26.4679,-82.0631,1.74,33.71,2 
SCCF RECON,ioos:station:SCCF:11:1,2016-07-04T00:00:00Z,26.4679,-82.0631,1.74,33.57,2 
SCCF RECON,ioos:station:SCCF:11:1,2016-07-04T01:00:00Z,26.4679,-82.0631,1.74,33.37,2 
SCCF RECON,ioos:station:SCCF:11:1,2016-07-04T02:00:00Z,26.4679,-82.0631,1.74,33.18,2 
SCCF RECON,ioos:station:SCCF:11:1,2016-07-04T03:00:00Z,26.4679,-82.0631,1.74,32.81,2 
SCCF RECON,ioos:station:SCCF:11:1,2016-07-04T04:00:00Z,26.4679,-82.0631,1.74,32.64,2 
SCCF RECON,ioos:station:SCCF:11:1,2016-07-04T05:00:00Z,26.4679,-82.0631,1.74,32.54,2 
SCCF RECON,ioos:station:SCCF:11:1,2016-07-04T06:00:00Z,26.4679,-82.0631,1.74,32.56,2 
SCCF RECON,ioos:station:SCCF:11:1,2016-07-04T07:00:00Z,26.4679,-82.0631,1.74,32.43,2 
SCCF RECON,ioos:station:SCCF:11:1,2016-07-04T08:00:00Z,26.4679,-82.0631,1.74,32.4,2 
SCCF RECON,ioos:station:SCCF:11:1,2016-07-04T09:00:00Z,26.4679,-82.0631,1.74,32.31,2 
SCCF RECON,ioos:station:SCCF:11:1,2016-07-04T10:00:00Z,26.4679,-82.0631,1.74,32.29,2 
SCCF RECON,ioos:station:SCCF:11:1,2016-07-04T11:00:00Z,26.4679,-82.0631,1.74,32.14,2 
SCCF RECON,ioos:station:SCCF:11:1,2016-07-04T12:00:00Z,26.4679,-82.0631,1.74,32.27,2 
SCCF RECON,ioos:station:SCCF:11:1,2016-07-04T13:00:00Z,26.4679,-82.0631,1.74,31.83,2 
SCCF RECON,ioos:station:SCCF:11:1,2016-07-04T14:00:00Z,26.4679,-82.0631,1.74,31.79,2 
SCCF RECON,ioos:station:SCCF:11:1,2016-07-04T15:00:00Z,26.4679,-82.0631,1.74,32.12,2 
SCCF RECON,ioos:station:SCCF:11:1,2016-07-04T16:00:00Z,26.4679,-82.0631,1.74,32.02,2 
SCCF RECON,ioos:station:SCCF:11:1,2016-07-04T17:00:00Z,26.4679,-82.0631,1.74,32.14,2 
SCCF RECON,ioos:station:SCCF:11:1,2016-07-04T18:00:00Z,26.4679,-82.0631,1.74,32.12,2 
SCCF RECON,ioos:station:SCCF:11:1,2016-07-04T19:00:00Z,26.4679,-82.0631,1.74,33.63,2 
SCCF RECON,ioos:station:SCCF:11:1,2016-07-04T20:00:00Z,26.4679,-82.0631,1.74,33.61,2 
SCCF RECON,ioos:station:SCCF:11:1,2016-07-04T21:00:00Z,26.4679,-82.0631,1.74,33.77,2 
SCCF RECON,ioos:station:SCCF:11:1,2016-07-04T22:00:00Z,26.4679,-82.0631,1.74,33.79,2 
SCCF RECON,ioos:station:SCCF:11:1,2016-07-04T23:00:00Z,26.4679,-82.0631,1.74,33.65,2 
SCCF RECON,ioos:station:SCCF:11:1,2016-07-05T00:00:00Z,26.4679,-82.0631,1.74,33.49,2 
SCCF RECON,ioos:station:SCCF:11:1,2016-07-05T01:00:00Z,26.4679,-82.0631,1.74,33.33,2 
SCCF RECON,ioos:station:SCCF:11:1,2016-07-05T02:00:00Z,26.4679,-82.0631,1.74,32.94,2 
SCCF RECON,ioos:station:SCCF:11:1,2016-07-05T03:00:00Z,26.4679,-82.0631,1.74,32.79,2 
SCCF RECON,ioos:station:SCCF:11:1,2016-07-05T04:00:00Z,26.4679,-82.0631,1.74,32.3,2 
SCCF RECON,ioos:station:SCCF:11:1,2016-07-05T05:00:00Z,26.4679,-82.0631,1.74,32.4,2 
SCCF RECON,ioos:station:SCCF:11:1,2016-07-05T06:00:00Z,26.4679,-82.0631,1.74,32.11,2 
SCCF RECON,ioos:station:SCCF:11:1,2016-07-05T07:00:00Z,26.4679,-82.0631,1.74,32.07,2 
SCCF RECON,ioos:station:SCCF:11:1,2016-07-05T08:00:00Z,26.4679,-82.0631,1.74,32.05,2 
SCCF RECON,ioos:station:SCCF:11:1,2016-07-05T09:00:00Z,26.4679,-82.0631,1.74,31.81,2 
SCCF RECON,ioos:station:SCCF:11:1,2016-07-05T10:00:00Z,26.4679,-82.0631,1.74,31.78,2 
SCCF RECON,ioos:station:SCCF:11:1,2016-07-05T11:00:00Z,26.4679,-82.0631,1.74,31.87,2 
SCCF RECON,ioos:station:SCCF:11:1,2016-07-05T12:00:00Z,26.4679,-82.0631,1.74,31.74,2 
SCCF RECON,ioos:station:SCCF:11:1,2016-07-05T13:00:00Z,26.4679,-82.0631,1.74,31.51,2 
SCCF RECON,ioos:station:SCCF:11:1,2016-07-05T14:00:00Z,26.4679,-82.0631,1.74,31.68,2 
SCCF RECON,ioos:station:SCCF:11:1,2016-07-05T15:00:00Z,26.4679,-82.0631,1.74,31.77,2 
SCCF RECON,ioos:station:SCCF:11:1,2016-07-05T16:00:00Z,26.4679,-82.0631,1.74,31.89,2 
SCCF RECON,ioos:station:SCCF:11:1,2016-07-05T17:00:00Z,26.4679,-82.0631,1.74,32.03,2 
SCCF RECON,ioos:station:SCCF:11:1,2016-07-05T18:00:00Z,26.4679,-82.0631,1.74,31.94,2 
SCCF RECON,ioos:station:SCCF:11:1,2016-07-05T19:00:00Z,26.4679,-82.0631,1.74,31.89,2 
SCCF RECON,ioos:station:SCCF:11:1,2016-07-05T20:00:00Z,26.4679,-82.0631,1.74,33.21,2 
SCCF RECON,ioos:station:SCCF:11:1,2016-07-05T21:00:00Z,26.4679,-82.0631,1.74,33.52,2 
SCCF RECON,ioos:station:SCCF:11:1,2016-07-05T22:00:00Z,26.4679,-82.0631,1.74,33.61,2 
SCCF RECON,ioos:station:SCCF:11:1,2016-07-05T23:00:00Z,26.4679,-82.0631,1.74,33.63,2 
SCCF RECON,ioos:station:SCCF:11:1,2016-07-06T00:00:00Z,26.4679,-82.0631,1.74,33.52,2 
SCCF RECON,ioos:station:SCCF:11:1,2016-07-06T01:00:00Z,26.4679,-82.0631,1.74,33.24,2 
SCCF RECON,ioos:station:SCCF:11:1,2016-07-06T02:00:00Z,26.4679,-82.0631,1.74,33.0,2 
SCCF RECON,ioos:station:SCCF:11:1,2016-07-06T03:00:00Z,26.4679,-82.0631,1.74,32.72,2 
SCCF RECON,ioos:station:SCCF:11:1,2016-07-06T04:00:00Z,26.4679,-82.0631,1.74,32.67,2 
SCCF RECON,ioos:station:SCCF:11:1,2016-07-06T05:00:00Z,26.4679,-82.0631,1.74,32.23,2 
SCCF RECON,ioos:station:SCCF:11:1,2016-07-06T06:00:00Z,26.4679,-82.0631,1.74,32.31,2 
SCCF RECON,ioos:station:SCCF:11:1,2016-07-06T07:00:00Z,26.4679,-82.0631,1.74,32.3,2 
SCCF RECON,ioos:station:SCCF:11:1,2016-07-06T08:00:00Z,26.4679,-82.0631,1.74,32.47,2 
SCCF RECON,ioos:station:SCCF:11:1,2016-07-06T09:00:00Z,26.4679,-82.0631,1.74,32.15,2 
SCCF RECON,ioos:station:SCCF:11:1,2016-07-06T10:00:00Z,26.4679,-82.0631,1.74,31.96,2 
SCCF RECON,ioos:station:SCCF:11:1,2016-07-06T11:00:00Z,26.4679,-82.0631,1.74,31.86,2 
SCCF RECON,ioos:station:SCCF:11:1,2016-07-06T12:00:00Z,26.4679,-82.0631,1.74,32.08,2 
SCCF RECON,ioos:station:SCCF:11:1,2016-07-06T13:00:00Z,26.4679,-82.0631,1.74,31.7,2 
SCCF RECON,ioos:station:SCCF:11:1,2016-07-06T14:00:00Z,26.4679,-82.0631,1.74,32.24,2 
SCCF RECON,ioos:station:SCCF:11:1,2016-07-06T15:00:00Z,26.4679,-82.0631,1.74,32.54,2 
SCCF RECON,ioos:station:SCCF:11:1,2016-07-06T16:00:00Z,26.4679,-82.0631,1.74,32.43,2 
SCCF RECON,ioos:station:SCCF:11:1,2016-07-06T17:00:00Z,26.4679,-82.0631,1.74,32.55,2 
SCCF RECON,ioos:station:SCCF:11:1,2016-07-06T18:00:00Z,26.4679,-82.0631,1.74,32.65,2 
SCCF RECON,ioos:station:SCCF:11:1,2016-07-06T19:00:00Z,26.4679,-82.0631,1.74,32.55,2 
SCCF RECON,ioos:station:SCCF:11:1,2016-07-06T20:00:00Z,26.4679,-82.0631,1.74,32.45,2 
SCCF RECON,ioos:station:SCCF:11:1,2016-07-06T21:00:00Z,26.4679,-82.0631,1.74,33.79,2 
SCCF RECON,ioos:station:SCCF:11:1,2016-07-06T22:00:00Z,26.4679,-82.0631,1.74,33.92,2 
SCCF RECON,ioos:station:SCCF:11:1,2016-07-06T23:00:00Z,26.4679,-82.0631,1.74,33.99,2 
SCCF RECON,ioos:station:SCCF:11:1,2016-07-07T00:00:00Z,26.4679,-82.0631,1.74,33.85,2 
SCCF RECON,ioos:station:SCCF:11:1,2016-07-07T01:00:00Z,26.4679,-82.0631,1.74,33.64,2 
SCCF RECON,ioos:station:SCCF:11:1,2016-07-07T02:00:00Z,26.4679,-82.0631,1.74,33.4,2 
SCCF RECON,ioos:station:SCCF:11:1,2016-07-07T03:00:00Z,26.4679,-82.0631,1.74,33.17,2 
SCCF RECON,ioos:station:SCCF:11:1,2016-07-07T04:00:00Z,26.4679,-82.0631,1.74,32.85,2 
SCCF RECON,ioos:station:SCCF:11:1,2016-07-07T05:00:00Z,26.4679,-82.0631,1.74,32.74,2 
SCCF RECON,ioos:station:SCCF:11:1,2016-07-07T06:00:00Z,26.4679,-82.0631,1.74,32.44,2 
SCCF RECON,ioos:station:SCCF:11:1,2016-07-07T07:00:00Z,26.4679,-82.0631,1.74,32.36,2 
SCCF RECON,ioos:station:SCCF:11:1,2016-07-07T08:00:00Z,26.4679,-82.0631,1.74,32.72,2 
SCCF RECON,ioos:station:SCCF:11:1,2016-07-07T09:00:00Z,26.4679,-82.0631,1.74,32.63,2 
SCCF RECON,ioos:station:SCCF:11:1,2016-07-07T10:00:00Z,26.4679,-82.0631,1.74,32.2,2 
SCCF RECON,ioos:station:SCCF:11:1,2016-07-07T11:00:00Z,26.4679,-82.0631,1.74,32.09,2 
SCCF RECON,ioos:station:SCCF:11:1,2016-07-07T12:00:00Z,26.4679,-82.0631,1.74,32.26,2 
SCCF RECON,ioos:station:SCCF:11:1,2016-07-07T13:00:00Z,26.4679,-82.0631,1.74,32.02,2 
SCCF RECON,ioos:station:SCCF:11:1,2016-07-07T14:00:00Z,26.4679,-82.0631,1.74,31.93,2 
SCCF RECON,ioos:station:SCCF:11:1,2016-07-07T15:00:00Z,26.4679,-82.0631,1.74,32.0,2 
SCCF RECON,ioos:station:SCCF:11:1,2016-07-07T16:00:00Z,26.4679,-82.0631,1.74,32.93,2 
SCCF RECON,ioos:station:SCCF:11:1,2016-07-07T17:00:00Z,26.4679,-82.0631,1.74,33.05,2 
SCCF RECON,ioos:station:SCCF:11:1,2016-07-07T18:00:00Z,26.4679,-82.0631,1.74,32.83,2 
SCCF RECON,ioos:station:SCCF:11:1,2016-07-07T19:00:00Z,26.4679,-82.0631,1.74,33.22,2 
SCCF RECON,ioos:station:SCCF:11:1,2016-07-07T20:00:00Z,26.4679,-82.0631,1.74,32.95,2 
SCCF RECON,ioos:station:SCCF:11:1,2016-07-07T21:00:00Z,26.4679,-82.0631,1.74,32.72,2 
SCCF RECON,ioos:station:SCCF:11:1,2016-07-07T22:00:00Z,26.4679,-82.0631,1.74,34.18,2 
SCCF RECON,ioos:station:SCCF:11:1,2016-07-07T23:00:00Z,26.4679,-82.0631,1.74,34.02,2 
SCCF RECON,ioos:station:SCCF:11:1,2016-07-08T00:00:00Z,26.4679,-82.0631,1.74,33.9,2 
SCCF RECON,ioos:station:SCCF:11:1,2016-07-08T01:00:00Z,26.4679,-82.0631,1.74,33.69,2 
SCCF RECON,ioos:station:SCCF:11:1,2016-07-08T02:00:00Z,26.4679,-82.0631,1.74,33.5,2 
SCCF RECON,ioos:station:SCCF:11:1,2016-07-08T03:00:00Z,26.4679,-82.0631,1.74,33.28,2 
SCCF RECON,ioos:station:SCCF:11:1,2016-07-08T04:00:00Z,26.4679,-82.0631,1.74,33.05,2 
SCCF RECON,ioos:station:SCCF:11:1,2016-07-08T05:00:00Z,26.4679,-82.0631,1.74,32.72,2 
SCCF RECON,ioos:station:SCCF:11:1,2016-07-08T06:00:00Z,26.4679,-82.0631,1.74,32.77,2 
SCCF RECON,ioos:station:SCCF:11:1,2016-07-08T07:00:00Z,26.4679,-82.0631,1.74,32.44,2 
SCCF RECON,ioos:station:SCCF:11:1,2016-07-08T08:00:00Z,26.4679,-82.0631,1.74,32.33,2 
SCCF RECON,ioos:station:SCCF:11:1,2016-07-08T09:00:00Z,26.4679,-82.0631,1.74,32.11,2 
SCCF RECON,ioos:station:SCCF:11:1,2016-07-08T10:00:00Z,26.4679,-82.0631,1.74,32.18,2 
SCCF RECON,ioos:station:SCCF:11:1,2016-07-08T11:00:00Z,26.4679,-82.0631,1.74,32.07,2 
SCCF RECON,ioos:station:SCCF:11:1,2016-07-08T12:00:00Z,26.4679,-82.0631,1.74,32.1,2 
SCCF RECON,ioos:station:SCCF:11:1,2016-07-08T13:00:00Z,26.4679,-82.0631,1.74,32.04,2 
SCCF RECON,ioos:station:SCCF:11:1,2016-07-08T14:00:00Z,26.4679,-82.0631,1.74,32.15,2 
SCCF RECON,ioos:station:SCCF:11:1,2016-07-08T15:00:00Z,26.4679,-82.0631,1.74,32.56,2 
SCCF RECON,ioos:station:SCCF:11:1,2016-07-08T16:00:00Z,26.4679,-82.0631,1.74,33.13,2 
SCCF RECON,ioos:station:SCCF:11:1,2016-07-08T17:00:00Z,26.4679,-82.0631,1.74,33.28,2 
SCCF RECON,ioos:station:SCCF:11:1,2016-07-08T18:00:00Z,26.4679,-82.0631,1.74,33.04,2 
SCCF RECON,ioos:station:SCCF:11:1,2016-07-08T19:00:00Z,26.4679,-82.0631,1.74,32.88,2 
SCCF RECON,ioos:station:SCCF:11:1,2016-07-08T20:00:00Z,26.4679,-82.0631,1.74,32.89,2 
SCCF RECON,ioos:station:SCCF:11:1,2016-07-08T21:00:00Z,26.4679,-82.0631,1.74,33.8,2 
SCCF RECON,ioos:station:SCCF:11:1,2016-07-08T22:00:00Z,26.4679,-82.0631,1.74,34.17,2 
SCCF RECON,ioos:station:SCCF:11:1,2016-07-08T23:00:00Z,26.4679,-82.0631,1.74,34.39,2 
SCCF RECON,ioos:station:SCCF:11:1,2016-07-09T00:00:00Z,26.4679,-82.0631,1.74,34.02,2 
SCCF RECON,ioos:station:SCCF:11:1,2016-07-09T01:00:00Z,26.4679,-82.0631,1.74,33.97,2 
SCCF RECON,ioos:station:SCCF:11:1,2016-07-09T02:00:00Z,26.4679,-82.0631,1.74,33.86,2 
SCCF RECON,ioos:station:SCCF:11:1,2016-07-09T03:00:00Z,26.4679,-82.0631,1.74,33.66,2 
SCCF RECON,ioos:station:SCCF:11:1,2016-07-09T04:00:00Z,26.4679,-82.0631,1.74,33.42,2 
SCCF RECON,ioos:station:SCCF:11:1,2016-07-09T05:00:00Z,26.4679,-82.0631,1.74,33.16,2 
SCCF RECON,ioos:station:SCCF:11:1,2016-07-09T06:00:00Z,26.4679,-82.0631,1.74,33.01,2 
SCCF RECON,ioos:station:SCCF:11:1,2016-07-09T07:00:00Z,26.4679,-82.0631,1.74,32.51,2 
SCCF RECON,ioos:station:SCCF:11:1,2016-07-09T08:00:00Z,26.4679,-82.0631,1.74,32.42,2 
SCCF RECON,ioos:station:SCCF:11:1,2016-07-09T09:00:00Z,26.4679,-82.0631,1.74,32.67,2 
SCCF RECON,ioos:station:SCCF:11:1,2016-07-09T10:00:00Z,26.4679,-82.0631,1.74,32.82,2 
SCCF RECON,ioos:station:SCCF:11:1,2016-07-09T11:00:00Z,26.4679,-82.0631,1.74,32.65,2 
SCCF RECON,ioos:station:SCCF:11:1,2016-07-09T12:00:00Z,26.4679,-82.0631,1.74,32.38,2 
SCCF RECON,ioos:station:SCCF:11:1,2016-07-09T13:00:00Z,26.4679,-82.0631,1.74,32.33,2 
SCCF RECON,ioos:station:SCCF:11:1,2016-07-09T14:00:00Z,26.4679,-82.0631,1.74,32.51,2 
SCCF RECON,ioos:station:SCCF:11:1,2016-07-09T15:00:00Z,26.4679,-82.0631,1.74,32.74,2 
SCCF RECON,ioos:station:SCCF:11:1,2016-07-09T16:00:00Z,26.4679,-82.0631,1.74,33.11,2 
SCCF RECON,ioos:station:SCCF:11:1,2016-07-09T17:00:00Z,26.4679,-82.0631,1.74,33.21,2 
SCCF RECON,ioos:station:SCCF:11:1,2016-07-09T18:00:00Z,26.4679,-82.0631,1.74,34.14,2 
SCCF RECON,ioos:station:SCCF:11:1,2016-07-09T19:00:00Z,26.4679,-82.0631,1.74,33.82,2 
SCCF RECON,ioos:station:SCCF:11:1,2016-07-09T20:00:00Z,26.4679,-82.0631,1.74,33.29,2 
SCCF RECON,ioos:station:SCCF:11:1,2016-07-09T21:00:00Z,26.4679,-82.0631,1.74,33.04,2 
SCCF RECON,ioos:station:SCCF:11:1,2016-07-09T22:00:00Z,26.4679,-82.0631,1.74,33.89,2 
SCCF RECON,ioos:station:SCCF:11:1,2016-07-09T23:00:00Z,26.4679,-82.0631,1.74,33.63,2 
SCCF RECON,ioos:station:SCCF:11:1,2016-07-10T00:00:00Z,26.4679,-82.0631,1.74,34.16,2 
SCCF RECON,ioos:station:SCCF:11:1,2016-07-10T01:00:00Z,26.4679,-82.0631,1.74,34.0,2 
SCCF RECON,ioos:station:SCCF:11:1,2016-07-10T02:00:00Z,26.4679,-82.0631,1.74,33.99,2 
SCCF RECON,ioos:station:SCCF:11:1,2016-07-10T03:00:00Z,26.4679,-82.0631,1.74,33.78,2 
SCCF RECON,ioos:station:SCCF:11:1,2016-07-10T04:00:00Z,26.4679,-82.0631,1.74,33.67,2 
SCCF RECON,ioos:station:SCCF:11:1,2016-07-10T05:00:00Z,26.4679,-82.0631,1.74,33.36,2 
SCCF RECON,ioos:station:SCCF:11:1,2016-07-10T06:00:00Z,26.4679,-82.0631,1.74,32.94,2 
SCCF RECON,ioos:station:SCCF:11:1,2016-07-10T07:00:00Z,26.4679,-82.0631,1.74,32.74,2 
SCCF RECON,ioos:station:SCCF:11:1,2016-07-10T08:00:00Z,26.4679,-82.0631,1.74,32.56,2 
SCCF RECON,ioos:station:SCCF:11:1,2016-07-10T09:00:00Z,26.4679,-82.0631,1.74,32.25,2 
SCCF RECON,ioos:station:SCCF:11:1,2016-07-10T10:00:00Z,26.4679,-82.0631,1.74,32.63,2 
SCCF RECON,ioos:station:SCCF:11:1,2016-07-10T11:00:00Z,26.4679,-82.0631,1.74,32.8,2 
SCCF RECON,ioos:station:SCCF:11:1,2016-07-10T12:00:00Z,26.4679,-82.0631,1.74,32.6,2 
SCCF RECON,ioos:station:SCCF:11:1,2016-07-10T13:00:00Z,26.4679,-82.0631,1.74,32.54,2 
SCCF RECON,ioos:station:SCCF:11:1,2016-07-10T14:00:00Z,26.4679,-82.0631,1.74,32.51,2 
SCCF RECON,ioos:station:SCCF:11:1,2016-07-10T15:00:00Z,26.4679,-82.0631,1.74,32.61,2 
SCCF RECON,ioos:station:SCCF:11:1,2016-07-10T16:00:00Z,26.4679,-82.0631,1.74,32.65,2 
SCCF RECON,ioos:station:SCCF:11:1,2016-07-10T17:00:00Z,26.4679,-82.0631,1.74,32.79,2 
SCCF RECON,ioos:station:SCCF:11:1,2016-07-10T18:00:00Z,26.4679,-82.0631,1.74,33.13,2 
SCCF RECON,ioos:station:SCCF:11:1,2016-07-10T19:00:00Z,26.4679,-82.0631,1.74,33.55,2 
SCCF RECON,ioos:station:SCCF:11:1,2016-07-10T20:00:00Z,26.4679,-82.0631,1.74,33.07,2 
SCCF RECON,ioos:station:SCCF:11:1,2016-07-10T21:00:00Z,26.4679,-82.0631,1.74,33.18,2 
SCCF RECON,ioos:station:SCCF:11:1,2016-07-10T22:00:00Z,26.4679,-82.0631,1.74,32.9,2 
SCCF RECON,ioos:station:SCCF:11:1,2016-07-10T23:00:00Z,26.4679,-82.0631,1.74,32.8,2 
SCCF RECON,ioos:station:SCCF:11:1,2016-07-11T00:00:00Z,26.4679,-82.0631,1.74,33.09,2 
SCCF RECON,ioos:station:SCCF:11:1,2016-07-11T01:00:00Z,26.4679,-82.0631,1.74,33.03,2 
SCCF RECON,ioos:station:SCCF:11:1,2016-07-11T02:00:00Z,26.4679,-82.0631,1.74,33.28,2 
SCCF RECON,ioos:station:SCCF:11:1,2016-07-11T03:00:00Z,26.4679,-82.0631,1.74,33.15,2 
SCCF RECON,ioos:station:SCCF:11:1,2016-07-11T04:00:00Z,26.4679,-82.0631,1.74,33.05,2 
SCCF RECON,ioos:station:SCCF:11:1,2016-07-11T05:00:00Z,26.4679,-82.0631,1.74,32.97,2 
SCCF RECON,ioos:station:SCCF:11:1,2016-07-11T06:00:00Z,26.4679,-82.0631,1.74,32.85,2 
SCCF RECON,ioos:station:SCCF:11:1,2016-07-11T07:00:00Z,26.4679,-82.0631,1.74,32.48,2 
SCCF RECON,ioos:station:SCCF:11:1,2016-07-11T08:00:00Z,26.4679,-82.0631,1.74,32.21,2 
SCCF RECON,ioos:station:SCCF:11:1,2016-07-11T09:00:00Z,26.4679,-82.0631,1.74,32.4,2 
SCCF RECON,ioos:station:SCCF:11:1,2016-07-11T10:00:00Z,26.4679,-82.0631,1.74,32.47,2 
SCCF RECON,ioos:station:SCCF:11:1,2016-07-11T11:00:00Z,26.4679,-82.0631,1.74,32.5,2 
SCCF RECON,ioos:station:SCCF:11:1,2016-07-11T12:00:00Z,26.4679,-82.0631,1.74,32.45,2 
SCCF RECON,ioos:station:SCCF:11:1,2016-07-11T13:00:00Z,26.4679,-82.0631,1.74,32.29,2 
SCCF RECON,ioos:station:SCCF:11:1,2016-07-11T14:00:00Z,26.4679,-82.0631,1.74,32.22,2 
SCCF RECON,ioos:station:SCCF:11:1,2016-07-11T15:00:00Z,26.4679,-82.0631,1.74,32.38,2 
SCCF RECON,ioos:station:SCCF:11:1,2016-07-11T16:00:00Z,26.4679,-82.0631,1.74,32.24,2 
SCCF RECON,ioos:station:SCCF:11:1,2016-07-11T17:00:00Z,26.4679,-82.0631,1.74,32.88,2 
SCCF RECON,ioos:station:SCCF:11:1,2016-07-11T18:00:00Z,26.4679,-82.0631,1.74,32.34,2 
SCCF RECON,ioos:station:SCCF:11:1,2016-07-11T19:00:00Z,26.4679,-82.0631,1.74,33.64,2 
SCCF RECON,ioos:station:SCCF:11:1,2016-07-11T20:00:00Z,26.4679,-82.0631,1.74,33.74,2 
SCCF RECON,ioos:station:SCCF:11:1,2016-07-11T21:00:00Z,26.4679,-82.0631,1.74,33.34,2 
SCCF RECON,ioos:station:SCCF:11:1,2016-07-11T22:00:00Z,26.4679,-82.0631,1.74,33.2,2 
SCCF RECON,ioos:station:SCCF:11:1,2016-07-11T23:00:00Z,26.4679,-82.0631,1.74,32.88,2 
SCCF RECON,ioos:station:SCCF:11:1,2016-07-12T00:00:00Z,26.4679,-82.0631,1.74,33.15,2 
SCCF RECON,ioos:station:SCCF:11:1,2016-07-12T01:00:00Z,26.4679,-82.0631,1.74,33.02,2 
SCCF RECON,ioos:station:SCCF:11:1,2016-07-12T02:00:00Z,26.4679,-82.0631,1.74,33.22,2 
SCCF RECON,ioos:station:SCCF:11:1,2016-07-12T03:00:00Z,26.4679,-82.0631,1.74,33.06,2 
SCCF RECON,ioos:station:SCCF:11:1,2016-07-12T04:00:00Z,26.4679,-82.0631,1.74,33.09,2 
SCCF RECON,ioos:station:SCCF:11:1,2016-07-12T05:00:00Z,26.4679,-82.0631,1.74,32.88,2 
SCCF RECON,ioos:station:SCCF:11:1,2016-07-12T06:00:00Z,26.4679,-82.0631,1.74,32.75,2 
SCCF RECON,ioos:station:SCCF:11:1,2016-07-12T07:00:00Z,26.4679,-82.0631,1.74,32.68,2 
SCCF RECON,ioos:station:SCCF:11:1,2016-07-12T08:00:00Z,26.4679,-82.0631,1.74,32.41,2 
SCCF RECON,ioos:station:SCCF:11:1,2016-07-12T09:00:00Z,26.4679,-82.0631,1.74,31.83,2 
SCCF RECON,ioos:station:SCCF:11:1,2016-07-12T10:00:00Z,26.4679,-82.0631,1.74,32.24,2 
SCCF RECON,ioos:station:SCCF:11:1,2016-07-12T11:00:00Z,26.4679,-82.0631,1.74,32.24,2 
SCCF RECON,ioos:station:SCCF:11:1,2016-07-12T12:00:00Z,26.4679,-82.0631,1.74,32.31,2 
SCCF RECON,ioos:station:SCCF:11:1,2016-07-12T13:00:00Z,26.4679,-82.0631,1.74,32.32,2 